Weather observations for the past three days for
Newburgh / Stewart
Metric (Imperial)
Date Time (edt) Wind (kph) Vis. (km) Weather Sky Cond. Temperature (ºC) Relative Humidity Wind Chill (°C) Heat Index (°C) Pressure Precipitation (cm)
Air Dwpt 6 hour altimeter (cm) sea level (mb) 1 hr 3 hr 6 hr
Max. Min.
04 12:45 N 15 G 26 16.09 Partly Cloudy SCT030 26 19 65% 27 75.9 0.0
04 11:45 N 9 16.09 Partly Cloudy SCT030 26 20 70% 27 75.92 0.0
04 10:45 NW 19 G 28 16.09 Partly Cloudy SCT030 25 20 74% 26 75.95 0.0
04 09:45 W 20 16.09 A Few Clouds FEW030 24 22 89% 24 75.92 0.0
04 08:45 W 15 16.09 A Few Clouds FEW030 23 22 94% 75.95 0.0
04 07:45 Vrbl 9 16.09 A Few Clouds FEW020 21 21 100% 75.9 0.0
04 06:45 W 13 16.09 Partly Cloudy SCT020 20 20 100% 75.9 0.0
04 05:45 Calm 16.09 Clear SKC 20 20 100% 75.84 0.0
04 04:45 Calm 16.09 Clear SKC 20 20 100% 75.82 0.0
04 03:45 W 7 11.27 Overcast SCT040 BKN050 OVC110 21 21 100% 75.77 0.0
04 02:45 NW 22 G 33 8.05 Light Rain Fog/Mist SCT020 OVC050 23 23 100% 75.92 0.0
04 01:45 Calm 16.09 Light Drizzle OVC050 23 23 100% 75.84 0.0
04 00:45 Calm 16.09 Overcast OVC050 23 23 100% 75.87 0.0
03 23:45 W 7 16.09 Partly Cloudy SCT100 23 23 100% 75.9 0.0
03 22:45 W 7 16.09 Partly Cloudy SCT100 23 23 100% 75.95 0.0
03 21:45 W 6 16.09 Partly Cloudy SCT100 24 23 94% 23 75.97 0.0
03 20:45 NW 11 16.09 Partly Cloudy SCT045 25 23 89% 26 75.92 0.0
03 19:45 Calm 16.09 Partly Cloudy SCT065 26 23 84% 28 75.92 0.0
03 18:45 W 7 16.09 Partly Cloudy SCT065 28 23 74% 31 75.9 0.0
03 17:45 W 11 16.09 Partly Cloudy SCT055 28 23 74% 31 75.9 0.0
03 16:45 NW 11 16.09 Partly Cloudy SCT045 29 22 66% 32 75.92 0.0
03 12:45 W 9 16.09 Mostly Cloudy BKN015 BKN050 25 22 83% 26 76.05 0.0
03 11:45 W 20 16.09 Mostly Cloudy BKN015 BKN050 24 22 89% 24 76.07 0.0
03 10:45 W 17 16.09 Mostly Cloudy BKN007 BKN050 23 22 94% 76.1 0.0
03 09:45 W 13 16.09 Mostly Cloudy BKN007 BKN070 22 21 94% 76.1 0.0
03 08:45 SW 7 16.09 Mostly Cloudy BKN007 BKN070 21 21 100% 76.1 0.0
03 07:45 SW 7 16.09 Mostly Cloudy FEW010 SCT050 BKN070 20 20 100% 76.1 0.0
03 06:45 W 9 11.27 Mostly Cloudy SCT010 BKN070 19 19 100% 76.12 0.0
03 05:45 Vrbl 7 11.27 Mostly Cloudy SCT012 BKN070 19 19 100% 76.12 0.0
03 04:45 Vrbl 7 11.27 Overcast OVC012 19 19 100% 76.1 0.0
03 02:45 Vrbl 7 8.05 Fog/Mist OVC012 19 19 100% 76.12 0.0
03 01:45 Vrbl 7 8.05 Fog/Mist OVC012 19 19 100% 76.35 0.0
03 00:45 Vrbl 7 8.05 Thunderstorm Light Rain Fog/Mist OVC012 19 19 100% 76.35 0.0
02 23:45 Vrbl 7 11.27 Fog/Mist OVC012 29 19 55% 30 76.48 0.0
02 21:45 Calm 9.66 Fog/Mist OVC012 19 18 94% 76.43 0.0
02 20:45 Calm 9.66 Fog/Mist OVC012 19 19 100% 76.43 0.0
02 19:45 Calm 9.66 Fog/Mist OVC012 19 18 94% 76.43 0.0
02 18:45 SE 15 9.66 Fog/Mist OVC012 19 19 100% 76.45 0.0
02 17:45 Vrbl 9 9.66 Fog/Mist OVC012 19 19 100% 76.5 0.0
02 16:45 Vrbl 7 8.05 Fog/Mist OVC012 19 19 100% 76.45 0.0
02 15:45 Calm 11.27 Mostly Cloudy BKN010 BKN080 20 18 88% 76.48 0.0
02 13:45 Vrbl 9 1.61 Thunderstorm Rain Fog/Mist BKN004 OVC010 18 18 100% 76.63 0.0
02 12:45 SE 7 11.27 Overcast OVC011 19 18 94% 76.56 0.0
02 11:45 SE 13 11.27 Overcast OVC012 18 17 94% 76.56 0.0
02 10:45 Calm 11.27 Overcast OVC012 18 17 94% 76.61 0.0
02 09:45 SE 11 16.09 Overcast BKN007 OVC012 17 17 100% 76.61 0.0
02 08:45 SE 11 11.27 Overcast BKN007 OVC012 17 17 100% 76.56 0.0
02 07:45 E 11 2.41 Fog/Mist OVC003 17 17 100% 76.53 0.0
02 06:45 E 11 2.41 Fog/Mist OVC004 17 17 100% 76.53 0.0
02 05:45 E 11 2.41 Fog/Mist OVC004 17 17 100% 76.48 0.0
02 04:45 E 9 8.05 Fog/Mist OVC004 17 17 100% 76.45 0.0
02 03:45 E 11 11.27 Overcast OVC009 18 18 100% 76.43 0.0
02 02:45 SE 9 11.27 Overcast OVC009 18 18 100% 76.43 0.0
02 01:45 SE 9 11.27 Overcast OVC007 18 18 100% 76.43 0.0
02 00:45 SE 15 11.27 Overcast OVC005 18 18 100% 76.43 0.0
01 23:45 E 15 11.27 Overcast OVC007 19 18 94% 76.35 0.0
01 21:45 E 15 16.09 Overcast OVC010 20 19 94% 76.28 0.0
01 20:45 E 17 11.27 Overcast OVC010 21 20 94% 76.2 0.0
01 19:45 E 20 11.27 Overcast BKN006 OVC010 22 21 94% 76.15 0.0
01 18:45 E 15 16.09 Mostly Cloudy BKN015 BKN040 25 23 89% 26 76.1 0.0
01 17:45 NE 13 16.09 Overcast BKN020 OVC045 25 23 89% 26 76.1 0.0
01 16:45 SW 9 16.09 Mostly Cloudy SCT020 BKN050 27 23 79% 30 76.05 0.0
01 15:45 SW 7 16.09 Mostly Cloudy SCT020 BKN050 27 23 79% 30 76.05 0.0
01 14:45 W 9 16.09 Mostly Cloudy BKN020 26 23 84% 28 76.07 0.0
01 13:45 Vrbl 9 16.09 Mostly Cloudy BKN020 26 23 84% 28 76.07 0.0
Date Time (edt) Wind (kph) Vis. (km) Weather Sky Cond. Air Dwpt Max. Min. Relative Humidity Wind Chill (°C) Heat Index (°C) altimeter (cm) sea level (mb) 1 hr 3 hr 6 hr
6 hour
Temperature (ºC) Pressure Precipitation (cm)